メインページ
METAR-TAF:

METAR-TAF

空港 :

ウォータータウン, ニューヨーク, アメリカ合衆国

緯度: 43-59-31N, 経度: 076-01-18W, 海抜: 99m

現時点の気象観測

当レポートは12分前の05:56(UTC)に作成
北東の風 5kt
気温 5°C
湿度 93%
気圧 1015 hPa
視程: 16.1km
高度4700ftの雲はほとんどない
高度5500ftの曇り

METAR: KART 040556Z AUTO 04005KT 10SM FEW047 OVC055 05/04 A2998 RMK AO2 SLP154 60000 T00500044 10072 20050 56002

時間: 02:08 (06:08 UTC)

予報

当レポートは30分前の05:38(UTC)に作成
予報は04日の 06時(UTC)から 05日の 06時(UTC)まで有効
北東の風 8kt
視程: 10km
高度3500ftの曇り
04日の 0900時(UTC)から
北東の風 7kt
視程: 4.8km
高度700ftの千切れ雲あり
04日の 1500時(UTC)から
北西の風 5kt
視程: 10km
高度2000ftの千切れ雲あり
04日の 2000時(UTC)から
西/北西の風 5kt
視程: 10km
高度4000ftの千切れ雲あり
05日の 0000時(UTC)から
変向風 4kt
視程: 10km
高度5000ftの千切れ雲あり

TAF: KART 040538Z 0406/0506 05008KT P6SM OVC035 FM040900 04007KT 3SM BR BKN007 FM041500 32005KT P6SM BKN020 FM042000 29005KT P6SM BKN040 FM050000 VRB04KT P6SM BKN050

4,000以上の空港の気象観測と天気予報(METAR報とTAF報)

利用可能な観測所は地図上に黄色い丸と赤い丸で示す。

丸の上にカーソルを重ねると観測所名を参照できる。

次にクリックすると気象観測と天気予報を参照できる。

マップの切り替え:黒色「×」印の緑ボタンをクリックして拡大、「-」印の緑ボタンをクリックして縮小、緑色の三角印をクリックして隣りの地図に切り替え


METAR-TAF: